OMD1106 KDFW-KROW

Flight info

Callsign OMD1106
Flight time 1h 12m
Altitude 34000
Route KATZZ2 BRHMA FLATT FRAIZ
Aircraft A20N/M-SDE2E3FGHIRWXY/LB1

Departure

Time 2026-05-03 22:06
Airport Dallas Fort Worth International Airport (KDFW)

Arrival

Time 2026-05-03 23:18
Airport Roswell Air Center Airport (KROW)
Time Latitude Longitude Altitude Speed Heading
2026-05-03 21:36 32.89739 -97.06074 601 ft 0 kts
2026-05-03 21:55 32.89732 -97.06074 601 ft 1 kts
2026-05-03 21:55 32.89724 -97.06074 601 ft 1 kts
2026-05-03 21:56 32.89717 -97.06075 601 ft 1 kts
2026-05-03 21:56 32.89709 -97.06075 600 ft 1 kts
2026-05-03 21:56 32.89701 -97.06075 600 ft 1 kts
2026-05-03 21:56 32.89693 -97.06075 600 ft 1 kts
2026-05-03 21:57 32.89686 -97.06075 600 ft 1 kts
2026-05-03 21:57 32.89669 -97.06074 600 ft 3 kts
2026-05-03 21:57 32.89651 -97.06082 600 ft 3 kts 50°
2026-05-03 21:57 32.89651 -97.06076 600 ft 2 kts 79°
2026-05-03 21:58 32.89651 -97.06054 600 ft 4 kts 89°
2026-05-03 21:58 32.89651 -97.06050 600 ft 0 kts 89°
2026-05-03 22:00 32.89651 -97.06043 599 ft 5 kts 89°
2026-05-03 22:00 32.89653 -97.05948 599 ft 17 kts 89°
2026-05-03 22:00 32.89676 -97.05804 601 ft 15 kts 40°
2026-05-03 22:01 32.89753 -97.05797 601 ft 13 kts
2026-05-03 22:01 32.89867 -97.05792 602 ft 20 kts
2026-05-03 22:01 32.90021 -97.05793 612 ft 25 kts 359°
2026-05-03 22:01 32.90212 -97.05797 615 ft 30 kts 358°
2026-05-03 22:02 32.90436 -97.05792 618 ft 34 kts
2026-05-03 22:02 32.90687 -97.05790 614 ft 38 kts 359°
2026-05-03 22:02 32.90905 -97.05770 611 ft 15 kts 49°
2026-05-03 22:02 32.90917 -97.05679 611 ft 12 kts 86°
2026-05-03 22:03 32.90914 -97.05573 610 ft 14 kts 93°
2026-05-03 22:03 32.90911 -97.05447 622 ft 16 kts 91°
2026-05-03 22:03 32.90919 -97.05316 614 ft 16 kts 64°
2026-05-03 22:03 32.91016 -97.05275 617 ft 16 kts
2026-05-03 22:04 32.91134 -97.05276 621 ft 18 kts 359°
2026-05-03 22:04 32.91260 -97.05275 616 ft 19 kts
2026-05-03 22:04 32.91398 -97.05271 621 ft 22 kts
2026-05-03 22:04 32.91546 -97.05291 616 ft 18 kts 315°
2026-05-03 22:05 32.91565 -97.05416 615 ft 16 kts 272°
2026-05-03 22:05 32.91521 -97.05466 622 ft 8 kts 183°
2026-05-03 22:05 32.91304 -97.05468 620 ft 71 kts 180°
2026-05-03 22:05 32.90558 -97.05471 616 ft 141 kts 180°
2026-05-03 22:06 32.89460 -97.05470 1011 ft 164 kts 182°
2026-05-03 22:06 32.88307 -97.05462 1625 ft 173 kts 182°
2026-05-03 22:06 32.87048 -97.05469 2292 ft 186 kts 182°
2026-05-03 22:06 32.85735 -97.05511 3122 ft 187 kts 184°
2026-05-03 22:07 32.84403 -97.05564 3874 ft 197 kts 184°
2026-05-03 22:07 32.83461 -97.05599 4246 ft 210 kts 182°
2026-05-03 22:07 32.81928 -97.05588 4852 ft 231 kts 180°
2026-05-03 22:07 32.80263 -97.05523 5487 ft 245 kts 180°
2026-05-03 22:08 32.78537 -97.05468 6411 ft 249 kts 180°
2026-05-03 22:08 32.76780 -97.05437 7210 ft 255 kts 181°
2026-05-03 22:08 32.74989 -97.05426 8027 ft 260 kts 182°
2026-05-03 22:08 32.73180 -97.05491 8807 ft 265 kts 191°
2026-05-03 22:09 32.71462 -97.06330 9547 ft 271 kts 218°
2026-05-03 22:09 32.71420 -97.06367 9569 ft 271 kts 219°
2026-05-03 22:09 32.70745 -97.07131 9973 ft 272 kts 232°
2026-05-03 22:10 32.69468 -97.11327 11500 ft 277 kts 258°
2026-05-03 22:10 32.69161 -97.13600 12308 ft 279 kts 266°
2026-05-03 22:10 32.69181 -97.15918 13126 ft 281 kts 275°
2026-05-03 22:10 32.69360 -97.18218 13927 ft 284 kts 274°
2026-05-03 22:11 32.69519 -97.20584 14619 ft 287 kts 274°
2026-05-03 22:11 32.69663 -97.22961 15307 ft 289 kts 274°
2026-05-03 22:11 32.69812 -97.25333 15995 ft 292 kts 277°
2026-05-03 22:11 32.70173 -97.27717 16675 ft 294 kts 282°
2026-05-03 22:12 32.70588 -97.30122 17336 ft 297 kts 282°
2026-05-03 22:12 32.70998 -97.32540 18013 ft 300 kts 282°
2026-05-03 22:12 32.71405 -97.34949 18650 ft 302 kts 282°
2026-05-03 22:12 32.71817 -97.37396 19290 ft 301 kts 282°
2026-05-03 22:13 32.72228 -97.39845 19941 ft 301 kts 282°
2026-05-03 22:13 32.72639 -97.42294 20562 ft 302 kts 282°
2026-05-03 22:13 32.73046 -97.44716 21167 ft 303 kts 282°
2026-05-03 22:13 32.73457 -97.47169 21770 ft 303 kts 282°
2026-05-03 22:14 32.73868 -97.49627 22392 ft 303 kts 282°
2026-05-03 22:14 32.74280 -97.52089 22995 ft 304 kts 282°
2026-05-03 22:14 32.74694 -97.54566 23587 ft 305 kts 282°
2026-05-03 22:14 32.75108 -97.57042 24077 ft 306 kts 282°
2026-05-03 22:15 32.75521 -97.59520 24567 ft 306 kts 282°
2026-05-03 22:15 32.75930 -97.61976 25044 ft 306 kts 282°
2026-05-03 22:15 32.76343 -97.64463 25516 ft 306 kts 282°
2026-05-03 22:15 32.76757 -97.66951 26034 ft 307 kts 282°
2026-05-03 22:16 32.77171 -97.69448 26502 ft 307 kts 282°
2026-05-03 22:16 32.77579 -97.71910 26950 ft 308 kts 282°
2026-05-03 22:16 32.78048 -97.74397 27372 ft 308 kts 286°
2026-05-03 22:16 32.78633 -97.76852 27789 ft 309 kts 286°
2026-05-03 22:17 32.79214 -97.79311 28202 ft 309 kts 286°
2026-05-03 22:17 32.79794 -97.81776 28606 ft 310 kts 286°
2026-05-03 22:17 32.80376 -97.84260 28995 ft 311 kts 286°
2026-05-03 22:17 32.80949 -97.86707 29285 ft 312 kts 286°
2026-05-03 22:18 32.81530 -97.89192 29659 ft 313 kts 286°
2026-05-03 22:18 32.82112 -97.91685 30045 ft 313 kts 286°
2026-05-03 22:18 32.82699 -97.94200 30377 ft 314 kts 286°
2026-05-03 22:18 32.83285 -97.96716 30687 ft 315 kts 286°
2026-05-03 22:19 32.83863 -97.99198 31064 ft 313 kts 286°
2026-05-03 22:19 32.84445 -98.01699 31507 ft 310 kts 286°
2026-05-03 22:19 32.85017 -98.04162 31920 ft 308 kts 286°
2026-05-03 22:19 32.85586 -98.06609 32270 ft 306 kts 286°
2026-05-03 22:20 32.86146 -98.09023 32631 ft 304 kts 285°
2026-05-03 22:20 32.86708 -98.11447 32985 ft 302 kts 285°
2026-05-03 22:20 32.87266 -98.13857 33317 ft 300 kts 285°
2026-05-03 22:20 32.87820 -98.16252 33640 ft 299 kts 285°
2026-05-03 22:21 32.88370 -98.18632 33921 ft 298 kts 285°
2026-05-03 22:21 32.88921 -98.21017 34064 ft 300 kts 285°
2026-05-03 22:21 32.89467 -98.23386 34068 ft 302 kts 285°
2026-05-03 22:22 32.90605 -98.28318 34063 ft 316 kts 285°
2026-05-03 22:22 32.91798 -98.33487 34065 ft 330 kts 285°
2026-05-03 22:23 32.93036 -98.38862 34063 ft 344 kts 285°
2026-05-03 22:23 32.94317 -98.44441 34059 ft 358 kts 285°
2026-05-03 22:24 32.95656 -98.50285 34056 ft 371 kts 285°
2026-05-03 22:24 32.97028 -98.56290 34051 ft 384 kts 285°
2026-05-03 22:25 32.98448 -98.62521 34066 ft 394 kts 285°
2026-05-03 22:25 32.99890 -98.68862 34059 ft 396 kts 285°
2026-05-03 22:26 33.01321 -98.75169 34065 ft 397 kts 285°
2026-05-03 22:26 33.02763 -98.81544 34047 ft 397 kts 285°
2026-05-03 22:27 33.04192 -98.87877 34046 ft 397 kts 285°
2026-05-03 22:27 33.05616 -98.94207 34057 ft 397 kts 285°
2026-05-03 22:28 33.07050 -99.00595 34045 ft 398 kts 284°
2026-05-03 22:28 33.08478 -99.06975 34046 ft 398 kts 284°
2026-05-03 22:29 33.09900 -99.13339 34039 ft 399 kts 284°
2026-05-03 22:29 33.11327 -99.19746 34042 ft 399 kts 284°
2026-05-03 22:30 33.12744 -99.26126 34036 ft 399 kts 284°
2026-05-03 22:30 33.14165 -99.32544 34030 ft 400 kts 284°
2026-05-03 22:31 33.15576 -99.38927 34032 ft 400 kts 284°
2026-05-03 22:31 33.16995 -99.45367 34024 ft 400 kts 284°
2026-05-03 22:32 33.18401 -99.51762 34024 ft 400 kts 284°
2026-05-03 22:32 33.19816 -99.58218 34022 ft 401 kts 284°
2026-05-03 22:33 33.21246 -99.64625 34024 ft 401 kts 284°
2026-05-03 22:33 33.22721 -99.71071 34024 ft 401 kts 284°
2026-05-03 22:34 33.24177 -99.77472 34021 ft 401 kts 284°
2026-05-03 22:34 33.25636 -99.83925 34018 ft 401 kts 284°
2026-05-03 22:35 33.27084 -99.90347 34013 ft 402 kts 284°
2026-05-03 22:35 33.28537 -99.96813 34014 ft 402 kts 284°
2026-05-03 22:36 33.29979 -100.03243 34010 ft 402 kts 284°
2026-05-03 22:36 33.31421 -100.09692 34006 ft 403 kts 284°
2026-05-03 22:37 33.32867 -100.16174 34003 ft 403 kts 284°
2026-05-03 22:37 33.34310 -100.22662 34001 ft 402 kts 284°
2026-05-03 22:38 33.35741 -100.29111 34000 ft 403 kts 284°
2026-05-03 22:38 33.37178 -100.35605 33998 ft 403 kts 284°
2026-05-03 22:39 33.38605 -100.42072 34000 ft 403 kts 284°
2026-05-03 22:39 33.40027 -100.48535 33999 ft 403 kts 284°
2026-05-03 22:40 33.41452 -100.55027 33993 ft 404 kts 284°
2026-05-03 22:40 33.42874 -100.61524 33992 ft 404 kts 284°
2026-05-03 22:41 33.44298 -100.68047 33993 ft 404 kts 283°
2026-05-03 22:41 33.45706 -100.74516 33993 ft 404 kts 283°
2026-05-03 22:42 33.47124 -100.81043 33991 ft 404 kts 283°
2026-05-03 22:42 33.48529 -100.87533 33989 ft 404 kts 283°
2026-05-03 22:43 33.49939 -100.94065 33989 ft 405 kts 283°
2026-05-03 22:43 33.51350 -101.00616 33986 ft 405 kts 283°
2026-05-03 22:44 33.52452 -101.07211 33983 ft 405 kts 276°
2026-05-03 22:44 33.53132 -101.13919 33985 ft 405 kts 277°
2026-05-03 22:45 33.53827 -101.20575 33983 ft 405 kts 277°
2026-05-03 22:45 33.54520 -101.27289 33980 ft 405 kts 277°
2026-05-03 22:46 33.55207 -101.34003 33986 ft 406 kts 277°
2026-05-03 22:46 33.55886 -101.40687 33986 ft 405 kts 277°
2026-05-03 22:47 33.56567 -101.47414 33995 ft 406 kts 276°
2026-05-03 22:47 33.57244 -101.54148 34017 ft 406 kts 276°
2026-05-03 22:48 33.57913 -101.60838 34031 ft 406 kts 276°
2026-05-03 22:48 33.58464 -101.66380 34042 ft 406 kts 276°
2026-05-03 22:49 33.59126 -101.73069 34058 ft 406 kts 276°
2026-05-03 22:49 33.59791 -101.79817 34062 ft 406 kts 276°
2026-05-03 22:50 33.60448 -101.86529 34065 ft 407 kts 276°
2026-05-03 22:50 33.61104 -101.93276 34058 ft 407 kts 276°
2026-05-03 22:51 33.61756 -102.00013 34043 ft 407 kts 276°
2026-05-03 22:51 33.62407 -102.06780 34025 ft 407 kts 276°
2026-05-03 22:52 33.63055 -102.13546 34023 ft 407 kts 276°
2026-05-03 22:52 33.63695 -102.20282 34037 ft 407 kts 276°
2026-05-03 22:53 33.64335 -102.27054 34052 ft 408 kts 276°
2026-05-03 22:53 33.64864 -102.33794 34060 ft 407 kts 271°
2026-05-03 22:54 33.64658 -102.39457 34062 ft 408 kts 265°
2026-05-03 22:54 33.63958 -102.47347 34051 ft 408 kts 265°
2026-05-03 22:55 33.63472 -102.52982 34033 ft 408 kts 265°
2026-05-03 22:55 33.62880 -102.59768 34022 ft 408 kts 265°
2026-05-03 22:56 33.62285 -102.66514 34007 ft 408 kts 265°
2026-05-03 22:56 33.61681 -102.73307 33986 ft 408 kts 265°
2026-05-03 22:57 33.61077 -102.80060 33969 ft 408 kts 265°
2026-05-03 22:57 33.60778 -102.83377 33962 ft 391 kts 265°
2026-05-03 22:57 33.60491 -102.86554 33959 ft 374 kts 265°
2026-05-03 22:57 33.60214 -102.89607 33941 ft 363 kts 265°
2026-05-03 22:58 33.59943 -102.92601 33289 ft 361 kts 265°
2026-05-03 22:58 33.59669 -102.95636 32102 ft 368 kts 265°
2026-05-03 22:58 33.59393 -102.98673 30987 ft 372 kts 265°
2026-05-03 22:58 33.59111 -103.01765 30025 ft 372 kts 265°
2026-05-03 22:59 33.58830 -103.04828 29150 ft 367 kts 265°
2026-05-03 22:59 33.58551 -103.07868 28131 ft 365 kts 265°
2026-05-03 22:59 33.58272 -103.10898 27124 ft 365 kts 265°
2026-05-03 22:59 33.57993 -103.13928 26163 ft 365 kts 265°
2026-05-03 23:00 33.57768 -103.16969 25226 ft 365 kts 268°
2026-05-03 23:00 33.57596 -103.20021 24328 ft 366 kts 266°
2026-05-03 23:00 33.57386 -103.23037 23453 ft 367 kts 266°
2026-05-03 23:00 33.57185 -103.26085 22502 ft 366 kts 266°
2026-05-03 23:01 33.57003 -103.29126 21672 ft 363 kts 267°
2026-05-03 23:01 33.56837 -103.32109 20851 ft 360 kts 267°
2026-05-03 23:01 33.56677 -103.35104 20053 ft 358 kts 267°
2026-05-03 23:01 33.56521 -103.38078 19279 ft 356 kts 267°
2026-05-03 23:02 33.56366 -103.41045 18519 ft 354 kts 267°
2026-05-03 23:02 33.56210 -103.43992 17721 ft 352 kts 267°
2026-05-03 23:02 33.56057 -103.46885 16977 ft 348 kts 267°
2026-05-03 23:02 33.55902 -103.49771 16251 ft 345 kts 267°
2026-05-03 23:03 33.55749 -103.52634 15540 ft 341 kts 267°
2026-05-03 23:03 33.55597 -103.55437 14830 ft 338 kts 267°
2026-05-03 23:03 33.55445 -103.58243 14156 ft 335 kts 267°
2026-05-03 23:03 33.55293 -103.61031 13444 ft 332 kts 267°
2026-05-03 23:04 33.55142 -103.63787 12735 ft 329 kts 267°
2026-05-03 23:04 33.54994 -103.66507 12148 ft 323 kts 267°
2026-05-03 23:04 33.54851 -103.69095 11957 ft 306 kts 267°
2026-05-03 23:04 33.54714 -103.71558 11899 ft 290 kts 267°
2026-05-03 23:05 33.54579 -103.74002 11903 ft 296 kts 267°
2026-05-03 23:05 33.54441 -103.76478 11898 ft 295 kts 267°
2026-05-03 23:05 33.54305 -103.78925 11900 ft 294 kts 266°
2026-05-03 23:05 33.54169 -103.81353 11897 ft 294 kts 266°
2026-05-03 23:06 33.54031 -103.83806 11897 ft 294 kts 266°
2026-05-03 23:06 33.53893 -103.86248 11895 ft 294 kts 266°
2026-05-03 23:06 33.53754 -103.88700 11893 ft 294 kts 266°
2026-05-03 23:06 33.53614 -103.91160 11892 ft 294 kts 266°
2026-05-03 23:07 33.53477 -103.93576 11894 ft 293 kts 266°
2026-05-03 23:07 33.53337 -103.96020 11892 ft 293 kts 266°
2026-05-03 23:07 33.53198 -103.98439 11894 ft 293 kts 266°
2026-05-03 23:07 33.53057 -104.00878 11891 ft 293 kts 266°
2026-05-03 23:08 33.52916 -104.03321 11802 ft 291 kts 266°
2026-05-03 23:08 33.52785 -104.05569 11514 ft 290 kts 266°
2026-05-03 23:08 33.52645 -104.07983 11118 ft 289 kts 266°
2026-05-03 23:08 33.52505 -104.10389 10727 ft 289 kts 266°
2026-05-03 23:09 33.52366 -104.12777 10272 ft 286 kts 266°
2026-05-03 23:09 33.52226 -104.15154 9669 ft 285 kts 265°
2026-05-03 23:09 33.52087 -104.17522 9129 ft 281 kts 265°
2026-05-03 23:09 33.51951 -104.19820 8936 ft 282 kts 265°
2026-05-03 23:10 33.51811 -104.22176 8859 ft 281 kts 265°
2026-05-03 23:10 33.51673 -104.24503 8501 ft 279 kts 265°
2026-05-03 23:10 33.51533 -104.26829 7868 ft 282 kts 265°
2026-05-03 23:10 33.51391 -104.29215 6966 ft 292 kts 264°
2026-05-03 23:11 33.51248 -104.31617 6330 ft 292 kts 264°
2026-05-03 23:11 33.51104 -104.34017 6016 ft 286 kts 264°
2026-05-03 23:11 33.50965 -104.36318 5913 ft 267 kts 264°
2026-05-03 23:11 33.50838 -104.38442 5906 ft 244 kts 264°
2026-05-03 23:12 33.50720 -104.40397 5918 ft 236 kts 263°
2026-05-03 23:12 33.50594 -104.42409 5915 ft 242 kts 263°
2026-05-03 23:12 33.50470 -104.44417 5923 ft 244 kts 263°
2026-05-03 23:12 33.50346 -104.46435 5923 ft 241 kts 263°
2026-05-03 23:13 33.50227 -104.48380 5918 ft 227 kts 263°
2026-05-03 23:13 33.50119 -104.50197 5915 ft 211 kts 263°
2026-05-03 23:13 33.49969 -104.51885 5801 ft 198 kts 251°
2026-05-03 23:13 33.49295 -104.53226 5597 ft 185 kts 220°
2026-05-03 23:14 33.48148 -104.53878 5187 ft 186 kts 186°
2026-05-03 23:14 33.46879 -104.53890 4986 ft 175 kts 179°
2026-05-03 23:14 33.45676 -104.53884 4941 ft 176 kts 179°
2026-05-03 23:14 33.44460 -104.53882 4951 ft 173 kts 179°
2026-05-03 23:15 33.43265 -104.53885 4950 ft 177 kts 179°
2026-05-03 23:15 33.42005 -104.53889 4944 ft 180 kts 179°
2026-05-03 23:15 33.40782 -104.53893 4948 ft 168 kts 180°
2026-05-03 23:15 33.39648 -104.53897 4966 ft 164 kts 180°
2026-05-03 23:16 33.38500 -104.53902 4958 ft 164 kts 179°
2026-05-03 23:16 33.37407 -104.53905 4925 ft 148 kts 179°
2026-05-03 23:16 33.36422 -104.53897 4663 ft 137 kts 179°
2026-05-03 23:16 33.35485 -104.53903 4472 ft 136 kts 180°
2026-05-03 23:17 33.34520 -104.53913 4339 ft 136 kts 179°
2026-05-03 23:17 33.33581 -104.53914 4167 ft 133 kts 179°
2026-05-03 23:17 33.32650 -104.53928 4014 ft 137 kts 179°
2026-05-03 23:17 33.31709 -104.53922 3810 ft 131 kts 178°
2026-05-03 23:18 33.30826 -104.53922 3676 ft 118 kts 179°
2026-05-03 23:18 33.30304 -104.53922 3675 ft 34 kts 180°
2026-05-03 23:18 33.30071 -104.53924 3676 ft 33 kts 180°
2026-05-03 23:18 33.29982 -104.53882 3675 ft 8 kts 88°
2026-05-03 23:19 33.29982 -104.53792 3676 ft 14 kts 90°
2026-05-03 23:19 33.29941 -104.53701 3676 ft 13 kts 163°
2026-05-03 23:19 33.29837 -104.53696 3676 ft 17 kts 180°
2026-05-03 23:19 33.29709 -104.53696 3676 ft 20 kts 180°
2026-05-03 23:20 33.29559 -104.53697 3676 ft 23 kts 180°
2026-05-03 23:20 33.29395 -104.53699 3676 ft 25 kts 180°
2026-05-03 23:20 33.29218 -104.53701 3676 ft 26 kts 181°
2026-05-03 23:20 33.29033 -104.53704 3676 ft 23 kts 176°
2026-05-03 23:21 33.28996 -104.53631 3674 ft 8 kts 50°
2026-05-03 23:21 33.29058 -104.53549 3672 ft 18 kts 45°
2026-05-03 23:21 33.29168 -104.53419 3670 ft 26 kts 45°
2026-05-03 23:21 33.29307 -104.53241 3667 ft 32 kts 47°
2026-05-03 23:22 33.29672 -104.52800 3660 ft 41 kts 40°
2026-05-03 23:22 33.29877 -104.52563 3657 ft 30 kts 43°
2026-05-03 23:22 33.29983 -104.52598 3657 ft 17 kts 316°
2026-05-03 23:23 33.30071 -104.52701 3659 ft 18 kts 315°
2026-05-03 23:23 33.30161 -104.52811 3661 ft 19 kts 314°
2026-05-03 23:23 33.30253 -104.52918 3663 ft 18 kts 311°
2026-05-03 23:23 33.30337 -104.53034 3666 ft 19 kts 312°
2026-05-03 23:24 33.30365 -104.53135 3668 ft 6 kts 225°
2026-05-03 23:24 33.30345 -104.53157 3668 ft 0 kts 224°